Weather History for West Palm Beach, FL

Change the Weather History Date:

Saturday, June 1, 2013

  Actual Average Record
Temperature  
Mean Temperature 77 °F 80 °F  
Max Temperature 82 °F 88 °F 95 °F (1927)
Min Temperature 72 °F 74 °F 61 °F (1984)
Degree Days  
Heating Degree Days 0 0  
Month to date heating degree days 0 0  
Since 1 June heating degree days 0 0  
Since 1 July heating degree days 164 233  
Cooling Degree Days 12 15  
Month to date cooling degree days 12 15  
Year to date cooling degree days 1193 1124  
Since 1 June cooling degree days 12 15  
Growing Degree Days 28 (Base 50)    
Moisture  
Dew Point 73 °F    
Average Humidity 90    
Maximum Humidity 100    
Minimum Humidity 79    
Precipitation  
Precipitation 0.11 in 0.26 in 4.27 in (1907)
Month to date precipitation 0.11 0.26  
Year to date precipitation 25.06 18.97  
Snow  
Snow 0.00 in - - ()
Month to date snowfall 0.0  
Since 1 June snowfall 0.0  
Since 1 July snowfall 0.0  
Snow Depth 0.00 in    
Sea Level Pressure  
Sea Level Pressure 30.00 in    
Wind  
Wind Speed 8 mph (ESE)    
Max Wind Speed 20 mph    
Max Gust Speed 25 mph    
Visibility 10 miles    
Events Rain , Thunderstorm    
T = Trace of Precipitation, MM = Missing Value Source: NWS Daily Summary

Daily Weather History Graph

Daily Weather History Graph

Search for Another Location

Airport:

Trip Planner

Search our weather history database for the weather conditions in past years. The results will help you decide how hot, cold, wet, or windy it might be!

Date:

Astronomy

Jun. 01, 2013 Rise Set
Actual Time 6:27 AM EDT 8:09 PM EDT
Civil Twilight 6:01 AM EDT 8:35 PM EDT
Nautical Twilight 5:29 AM EDT 9:06 PM EDT
Astronomical Twilight 4:57 AM EDT 9:39 PM EDT
Moon 1:46 AM EDT (6/1) 2:09 PM EDT (6/1)
Length of Visible Light 14h 34m
Length of Day
13h 42m
Last Quarter, 41% of the Moon is Illuminated
Jun 1
Last Quarter
Jun 8
New
Jun 16
First Quarter
Jun 23
Full
Jun 30
Last Quarter

Hourly Weather History & Observations

Time (EDT) Temp. Heat Index Dew Point Humidity Pressure Visibility Wind Dir Wind Speed Gust Speed Precip Events Conditions
12:53 AM 75.9 °F - 73.0 °F 91% 30.02 in 10.0 mi ESE 13.8 mph - 0.00 in   Mostly Cloudy
1:53 AM 75.9 °F - 73.0 °F 91% 30.00 in 10.0 mi ESE 11.5 mph - N/A   Mostly Cloudy
2:53 AM 75.0 °F - 73.9 °F 96% 29.99 in 10.0 mi ESE 3.5 mph - 0.00 in   Overcast
3:15 AM 75.2 °F - 73.4 °F 94% 29.99 in 4.0 mi SSE 9.2 mph - 0.00 in Rain Rain
3:53 AM 75.0 °F - 73.9 °F 96% 29.98 in 10.0 mi ESE 5.8 mph - 0.10 in Rain Light Rain
4:00 AM 75.2 °F - 73.4 °F 94% 29.98 in 10.0 mi ESE 4.6 mph - 0.01 in Rain Light Rain
4:08 AM 75.2 °F - 73.4 °F 94% 29.98 in 10.0 mi SE 4.6 mph - 0.01 in   Overcast
4:53 AM 75.0 °F - 73.9 °F 96% 29.97 in 10.0 mi SSE 4.6 mph - 0.01 in   Mostly Cloudy
5:53 AM 75.0 °F - 73.9 °F 96% 29.98 in 10.0 mi Calm Calm - N/A   Mostly Cloudy
6:53 AM 75.0 °F - 73.9 °F 96% 29.99 in 10.0 mi SE 4.6 mph - N/A   Mostly Cloudy
7:53 AM 77.0 °F - 73.9 °F 90% 30.01 in 10.0 mi ESE 8.1 mph - N/A   Mostly Cloudy
8:42 AM 78.8 °F - 73.4 °F 83% 30.02 in 10.0 mi East 10.4 mph - N/A   Mostly Cloudy
8:53 AM 79.0 °F - 73.9 °F 84% 30.02 in 10.0 mi ESE 9.2 mph - N/A   Mostly Cloudy
9:53 AM 80.1 °F 84.5 °F 73.9 °F 81% 30.02 in 10.0 mi East 11.5 mph - N/A   Mostly Cloudy
10:53 AM 81.0 °F 85.8 °F 73.0 °F 77% 30.02 in 10.0 mi East 12.7 mph - N/A   Mostly Cloudy
11:53 AM 81.0 °F 85.8 °F 73.0 °F 77% 30.02 in 10.0 mi East 13.8 mph - N/A   Mostly Cloudy
12:53 PM 81.0 °F 86.2 °F 73.9 °F 79% 30.01 in 10.0 mi East 18.4 mph - N/A   Mostly Cloudy
1:10 PM 80.6 °F 85.4 °F 73.4 °F 79% 30.01 in 10.0 mi East 19.6 mph - N/A Thunderstorm Thunderstorm
1:53 PM 79.0 °F - 73.0 °F 82% 30.01 in 10.0 mi East 16.1 mph - N/A Thunderstorm Thunderstorm
2:06 PM 78.8 °F - 73.4 °F 83% 30.00 in 10.0 mi East 16.1 mph 21.9 mph N/A   Mostly Cloudy
2:53 PM 79.0 °F - 73.0 °F 82% 29.99 in 10.0 mi East 13.8 mph - N/A   Mostly Cloudy
3:53 PM 78.1 °F - 73.0 °F 84% 29.99 in 10.0 mi East 16.1 mph - N/A   Mostly Cloudy
4:22 PM 75.2 °F - 73.4 °F 94% 29.99 in 10.0 mi SSE 10.4 mph - N/A Thunderstorm Thunderstorm
4:53 PM 75.0 °F - 73.9 °F 96% 29.99 in 10.0 mi SE 10.4 mph - N/A Thunderstorm Thunderstorm
5:12 PM 75.2 °F - 73.4 °F 94% 29.99 in 10.0 mi SSE 8.1 mph - N/A   Mostly Cloudy
5:53 PM 75.0 °F - 73.9 °F 96% 29.97 in 10.0 mi SSE 3.5 mph - N/A   Mostly Cloudy
6:53 PM 75.0 °F - 73.0 °F 94% 30.00 in 10.0 mi SSE 3.5 mph - N/A   Mostly Cloudy
7:53 PM 75.0 °F - 73.0 °F 94% 30.00 in 10.0 mi South 4.6 mph - N/A   Mostly Cloudy
8:53 PM 75.0 °F - 73.0 °F 94% 30.00 in 10.0 mi South 4.6 mph - N/A   Mostly Cloudy
9:53 PM 75.0 °F - 73.0 °F 94% 30.00 in 10.0 mi Calm Calm - N/A   Mostly Cloudy
10:53 PM 73.9 °F - 73.0 °F 97% 30.01 in 10.0 mi Calm Calm - N/A   Mostly Cloudy
11:53 PM 73.0 °F - 72.0 °F 96% 30.01 in 10.0 mi Calm Calm - N/A   Mostly Cloudy